Lid_Strength_Index
15 14 14 14 15 15 17 16 18 17 17 15 15 14 12 10 9 8 8 8 8 8 9 8 8 7 7 7 6 6 6 7 7 7 7 7 8 8 9 10 10 9 9 9
16 14 15 16 14 14 15 15 16 16 16 15 13 12 12 11 9 9 9 8 7 7 9 8 8 8 7 7 7 7 7 7 6 7 7 8 9 9 9 9 9 10 10 10
18 15 15 16 15 15 15 15 15 17 15 14 14 13 13 13 12 11 11 10 9 8 7 7 7 7 7 7 7 7 7 7 7 8 9 9 9 9 10 10 11 11 11 11
19 17 21 13 13 13 14 14 15 14 14 13 13 13 13 12 13 12 11 11 11 11 10 10 8 7 7 7 7 7 7 7 8 9 9 10 10 10 11 11 11 11 11 11
18 19 16 13 13 14 15 15 14 14 13 13 12 12 13 12 11 12 11 11 11 11 10 10 10 8 8 8 8 8 8 9 9 10 10 10 11 11 12 12 11 11 11 11
17 18 19 14 12 12 13 17 13 13 13 13 13 15 14 11 10 10 10 10 10 10 10 10 11 10 9 9 9 9 9 9 9 10 11 11 11 11 11 11 10 10 11 11
17 18 16 11 12 11 17 15 12 12 12 12 13 13 12 11 10 9 9 9 9 10 10 10 10 10 10 10 10 9 9 10 10 10 11 11 11 11 11 11 12 13 13 13
17 19 19 11 12 14 12 12 11 11 11 12 12 11 11 10 10 10 10 10 10 10 10 10 10 10 11 11 10 10 10 10 10 11 11 11 11 12 12 13 14 14 14 13
14 14 11 11 11 11 10 10 11 10 10 10 11 11 10 11 11 11 11 11 10 11 11 11 11 11 12 12 11 10 11 11 12 12 12 12 12 13 13 13 13 13 13 13
13 11 11 10 10 10 9 9 9 9 10 10 10 10 10 11 11 12 11 11 11 11 12 12 12 12 13 12 11 11 12 13 13 13 13 13 12 11 12 12 13 13 13 14
13 12 10 10 10 9 9 8 9 8 9 9 9 10 11 12 12 12 12 12 12 13 13 13 13 14 14 14 13 14 14 14 13 12 12 13 13 13 13 13 13 14 13 14
14 10 10 10 9 8 9 8 8 8 9 10 10 11 11 12 11 12 12 11 11 11 11 12 12 12 12 12 12 13 14 13 12 12 12 14 14 14 10 9 8 8 8 9
10 9 9 10 9 9 9 8 8 9 10 12 11 11 10 11 12 12 14 13 12 13 13 12 12 12 12 12 12 13 14 13 13 13 14 14 14 15 15 12 10 9 8 7
9 9 11 10 11 10 9 9 10 11 11 11 11 11 12 14 14 15 16 16 14 15 15 15 15 15 14 13 13 13 14 12 14 14 14 14 14 14 15 14 13 12 9 8
11 10 9 11 10 10 10 11 12 13 14 14 14 14 14 14 15 16 16 16 16 16 16 16 16 15 14 14 15 15 16 16 15 15 15 13 14 14 14 14 13 13 12 10
11 11 11 11 12 11 12 13 14 15 15 15 15 15 16 16 16 16 16 16 17 17 16 16 16 15 15 15 16 16 16 13 12 16 15 15 14 14 14 14 13 13 12 11
13 14 14 15 15 15 15 15 15 15 16 16 16 16 17 17 17 17 17 17 17 17 16 16 16 15 15 15 16 16 16 15 12 14 14 14 13 13 13 12 12 11 11 9
12 13 14 14 15 16 16 15 16 16 17 17 17 17 17 17 18 18 18 17 17 17 16 16 15 15 15 15 15 15 14 14 14 14 13 13 12 11 11 10 9 9 9 8
15 15 15 15 15 15 16 16 16 16 17 17 17 18 18 18 17 17 17 18 18 18 16 15 13 14 15 14 13 14 14 14 14 13 13 11 11 11 10 10 10 10 10 9
16 15 16 16 15 16 17 17 17 17 17 17 18 18 18 18 18 18 18 18 18 17 15 15 14 14 14 14 12 13 13 14 13 13 12 11 11 10 10 9 9 10 11 10
16 16 16 16 17 16 17 17 17 18 18 18 18 19 18 18 18 18 18 18 17 15 14 12 14 14 13 12 12 12 12 13 13 13 12 11 10 11 12 12 12 11 11 11
17 17 17 17 18 18 17 18 18 18 18 18 18 18 18 18 18 17 16 17 15 12 13 14 14 12 11 9 10 13 13 13 12 12 13 12 12 13 12 12 12 11 11 11
17 17 17 18 18 18 18 18 18 18 19 18 18 18 18 17 17 18 17 15 14 13 12 12 11 9 9 10 12 12 12 13 13 14 14 13 13 12 12 12 12 12 11 11
17 17 18 18 19 20 20 18 18 18 18 17 16 16 17 18 17 16 15 12 11 11 11 11 11 9 9 11 14 15 15 15 14 14 14 12 13 13 14 13 13 12 12 11
18 18 20 19 19 18 18 18 18 18 17 17 16 17 16 15 16 14 14 13 11 12 12 11 10 10 12 14 14 14 14 14 14 14 13 13 14 14 13 13 13 12 12 12
18 18 18 18 18 17 17 17 17 16 16 16 15 15 15 14 15 13 14 13 13 12 14 13 13 12 13 13 14 14 13 13 13 14 14 13 13 14 14 13 12 12 12 13
18 15 17 17 16 16 16 15 16 16 15 16 15 14 13 13 14 13 13 15 15 14 14 14 14 13 13 13 13 13 13 13 13 13 13 14 15 16 15 14 12 12 12 12